EST,Max TemperatureF,Mean TemperatureF,Min TemperatureF,Max Dew PointF,MeanDew PointF,Min DewpointF,Max Humidity, Mean Humidity, Min Humidity, Max Sea Level PressureIn, Mean Sea Level PressureIn, Min Sea Level PressureIn, Max VisibilityMiles, Mean VisibilityMiles, Min VisibilityMiles, Max Wind SpeedMPH, Mean Wind SpeedMPH, Max Gust SpeedMPH,PrecipitationIn, CloudCover, Events, WindDirDegrees
2013-1-1,66,56,46,59,52,46,100,81,68,30.20,30.09,29.96,10,9,5,12,5,,0.00,4,,218
2013-1-2,64,58,53,57,54,48,94,85,73,30.14,30.01,29.92,10,9,3,13,7,18,0.00,7,Rain,280
2013-1-3,51,48,46,52,48,45,100,94,87,30.28,30.17,30.10,10,5,1,8,2,,0.11,8,Rain,14
2013-1-4,55,45,35,43,37,30,100,80,41,30.35,30.30,30.26,10,6,0,7,2,,0.00,1,Fog,356
2013-1-5,55,44,32,43,35,28,100,78,41,30.42,30.34,30.30,10,9,3,7,2,,0.00,0,,60
2013-1-6,55,50,44,48,46,43,100,88,63,30.30,30.19,30.12,10,9,1,7,0,,0.09,5,Rain,298
2013-1-7,55,47,39,45,38,34,100,73,44,30.40,30.32,30.18,10,10,8,13,6,,0.00,0,,25
2013-1-8,69,56,44,55,47,37,100,79,60,30.40,30.34,30.31,10,10,7,7,4,,0.00,1,,36
2013-1-9,73,63,53,61,57,52,100,85,65,30.40,30.36,30.32,10,9,1,6,2,,0.00,5,,31
2013-1-10,69,61,53,63,57,54,100,92,60,30.45,30.40,30.36,10,5,0,10,2,23,0.07,6,Fog-Rain,45
2013-1-11,75,65,55,66,61,55,100,91,61,30.35,30.25,30.19,10,5,0,13,2,16,0.00,3,Fog,198
2013-1-12,78,68,57,66,62,57,100,88,54,30.22,30.17,30.13,10,6,0,9,2,,0.00,1,Fog,206
2013-1-13,75,64,53,66,60,54,100,91,61,30.20,30.14,30.10,10,6,0,12,2,,0.00,1,Fog,207
2013-1-14,77,67,57,66,62,57,100,88,61,30.21,30.17,30.13,10,8,0,16,6,23,0.00,1,Fog,199
2013-1-15,75,66,57,64,63,57,100,90,69,30.18,30.12,30.05,10,7,0,13,4,17,0.00,1,Fog,196
2013-1-16,77,70,64,66,63,61,100,83,57,30.08,30.03,29.98,10,10,8,16,8,23,0.00,1,,205
2013-1-17,73,60,48,64,58,41,100,84,61,30.03,29.93,29.77,10,9,1,23,9,34,0.20,2,Rain,215
2013-1-18,55,46,37,41,33,25,93,67,31,30.50,30.38,30.06,10,10,10,20,10,30,0.00,1,,4
2013-1-19,62,50,37,48,39,32,100,73,48,30.47,30.36,30.24,10,9,5,7,4,,0.00,1,,29
2013-1-20,69,55,39,48,40,27,100,72,20,30.23,30.14,30.05,10,9,3,15,2,20,0.00,0,,285
2013-1-21,66,52,37,43,37,30,100,64,26,30.11,30.05,29.97,10,10,7,13,2,18,0.00,0,,251
2013-1-22,55,44,33,34,29,23,93,54,31,30.28,30.17,30.05,10,10,10,14,6,21,0.00,0,,306
2013-1-23,53,43,33,37,28,21,93,62,30,30.39,30.29,30.20,10,10,10,9,3,,0.00,0,,295
2013-1-24,66,50,35,45,35,21,72,55,32,30.48,30.23,30.11,10,10,8,17,9,28,0.00,0,,311
2013-1-25,51,42,32,45,30,16,82,66,51,30.47,30.31,30.16,10,10,10,8,5,,0.00,2,,23
2013-1-26,60,48,37,43,37,32,93,73,39,30.33,30.20,30.13,10,10,8,8,1,,0.00,2,,357
2013-1-27,51,43,35,39,36,32,93,76,58,30.51,30.46,30.33,10,10,7,9,4,20,0.00,1,,44
2013-1-28,64,52,41,57,45,36,100,82,66,30.47,30.38,30.30,10,8,3,6,2,,0.00,3,,25
2013-1-29,75,60,46,64,56,46,100,91,65,30.29,30.22,30.14,10,5,0,14,2,17,0.00,3,Fog,189
2013-1-30,75,70,66,66,65,64,94,86,69,30.12,29.93,29.66,10,6,1,22,14,39,0.05,2,Rain,184
2013-1-31,60,52,44,59,33,23,100,53,29,30.19,29.99,29.74,10,9,2,22,13,34,0.33,1,Rain,274